N3819L KVUJ-KVUJ

Flight info

Callsign N3819L
Flight time 0h 9m
Altitude
Route PATTERN WORK
Aircraft C172/L-DOV/C

Departure

Time 2026-05-07 16:59
Airport Stanly County Airport (KVUJ)

Arrival

Time 2026-05-07 17:08
Airport Stanly County Airport (KVUJ)
Time Latitude Longitude Altitude Speed Heading
2026-05-07 16:50 35.41191 -80.15143 581 ft 0 kts 125°
2026-05-07 16:51 35.41186 -80.15129 581 ft 4 kts 94°
2026-05-07 16:51 35.41203 -80.15123 581 ft 9 kts 306°
2026-05-07 16:51 35.41188 -80.15191 581 ft 8 kts 225°
2026-05-07 16:52 35.41173 -80.15237 582 ft 7 kts 308°
2026-05-07 16:52 35.41221 -80.15244 582 ft 10 kts 37°
2026-05-07 16:52 35.41288 -80.15184 581 ft 15 kts 36°
2026-05-07 16:52 35.41396 -80.15084 580 ft 23 kts 37°
2026-05-07 16:53 35.41528 -80.14962 579 ft 23 kts 36°
2026-05-07 16:53 35.41660 -80.14837 578 ft 25 kts 37°
2026-05-07 16:53 35.41795 -80.14715 576 ft 22 kts 38°
2026-05-07 16:53 35.41911 -80.14607 575 ft 20 kts 37°
2026-05-07 16:54 35.42013 -80.14513 574 ft 17 kts 39°
2026-05-07 16:54 35.42076 -80.14464 574 ft 0 kts 339°
2026-05-07 16:57 35.42102 -80.14490 574 ft 13 kts 310°
2026-05-07 16:57 35.42122 -80.14549 575 ft 6 kts 232°
2026-05-07 16:57 35.42115 -80.14556 575 ft 0 kts 218°
2026-05-07 16:57 35.41952 -80.14708 577 ft 54 kts 218°
2026-05-07 16:58 35.41539 -80.15077 593 ft 89 kts 218°
2026-05-07 16:58 35.41014 -80.15548 734 ft 97 kts 219°
2026-05-07 16:58 35.40506 -80.16053 985 ft 93 kts 216°
2026-05-07 16:58 35.39868 -80.16192 1165 ft 100 kts 162°
2026-05-07 16:59 35.39447 -80.15584 1354 ft 98 kts 89°
2026-05-07 16:59 35.39760 -80.14909 1598 ft 91 kts 41°
2026-05-07 16:59 35.40290 -80.14454 1694 ft 99 kts 33°
2026-05-07 16:59 35.40894 -80.13940 1698 ft 109 kts 34°
2026-05-07 17:00 35.41518 -80.13322 1633 ft 118 kts 40°
2026-05-07 17:00 35.42102 -80.12699 1642 ft 103 kts 41°
2026-05-07 17:00 35.42695 -80.12473 1569 ft 92 kts 345°
2026-05-07 17:00 35.43049 -80.13029 1458 ft 93 kts 267°
2026-05-07 17:01 35.42739 -80.13807 1074 ft 103 kts 239°
2026-05-07 17:01 35.42261 -80.14415 684 ft 99 kts 217°
2026-05-07 17:01 35.41913 -80.14731 577 ft 86 kts 221°
2026-05-07 17:01 35.41289 -80.15309 715 ft 90 kts 219°
2026-05-07 17:02 35.40778 -80.15782 894 ft 95 kts 218°
2026-05-07 17:02 35.40258 -80.16278 1116 ft 94 kts 219°
2026-05-07 17:02 35.40009 -80.16961 1317 ft 92 kts 285°
2026-05-07 17:02 35.40288 -80.17675 1491 ft 93 kts 298°
2026-05-07 17:03 35.40672 -80.18289 1660 ft 92 kts 335°
2026-05-07 17:03 35.41304 -80.18283 1772 ft 97 kts 28°
2026-05-07 17:03 35.41903 -80.17817 1854 ft 106 kts 34°
2026-05-07 17:03 35.42102 -80.17646 1868 ft 109 kts 33°
2026-05-07 17:05 35.43995 -80.13759 1335 ft 111 kts 158°
2026-05-07 17:05 35.43257 -80.13659 1086 ft 102 kts 190°
2026-05-07 17:05 35.42654 -80.14039 803 ft 92 kts 222°
2026-05-07 17:05 35.42224 -80.14445 634 ft 72 kts 221°
2026-05-07 17:06 35.41838 -80.14807 621 ft 74 kts 217°
2026-05-07 17:06 35.41440 -80.15210 821 ft 73 kts 240°
2026-05-07 17:06 35.41469 -80.15803 1032 ft 71 kts 301°
2026-05-07 17:06 35.41879 -80.15992 1199 ft 74 kts 22°
2026-05-07 17:07 35.42445 -80.15682 1242 ft 95 kts 24°
2026-05-07 17:07 35.43008 -80.15334 1321 ft 81 kts 31°
2026-05-07 17:07 35.43208 -80.14799 1313 ft 81 kts 96°
2026-05-07 17:07 35.42834 -80.14211 1187 ft 100 kts 152°
2026-05-07 17:08 35.42229 -80.14453 740 ft 103 kts 221°
2026-05-07 17:08 35.41717 -80.14918 577 ft 76 kts 218°
2026-05-07 17:08 35.41430 -80.15186 581 ft 22 kts 217°
2026-05-07 17:08 35.41359 -80.15172 581 ft 7 kts 126°
2026-05-07 17:09 35.41352 -80.15160 581 ft 0 kts 124°